COSMOS 2608

导读

COSMOS 2608(NORAD编号67682)是俄罗斯延续苏联传统以“宇宙”(COSMOS)命名系列卫星中的成员,该系列多为军事用途卫星,涵盖侦察、通信、导航等任务,从苏联时期延续至今已发射数千颗。当前公开信息中未明确其具体任务定位,推测为俄罗斯军用航天体系中的功能性卫星。它作为俄罗斯太空部署的一部分,延续了“宇宙”系列卫星服务国防与航天探测的定位,在近地轨道执行相关任务,是俄罗斯航天力量建设的组成单元。目前该卫星仍在轨道运行,承担着既定航天任务。

基本信息
目录编号:
67682
目录名称:
COSMOS 2608
国际标识:
2026-023J
轨道中心:
EARTH
卫星名称:
COSMOS 2608
卫星全名:
COSMOS 2608
卫星状态:
在轨 (已飞行212 天)
发射日期:
2026-02-05 UTC
国别 :
俄罗斯(独联体) (CIS)
星等 :
--
轨道信息
数据来源 国际轨道数据
星历时间: 2026-09-04T10:37:53+0800
1天前
查看轨道信息
半长轴: 6863.86km
偏心率: 0.0020043
轨道倾角: 96.618°
近地点辐角 190.080°
升交点赤经 302.197°
平近点角 170.004°
近地点: 471.965km
远地点: 499.481km
周期: 94.322分钟
每日圈数: 15.266875
详细信息
使用方式:
暂无
2D轨道图
3D轨道图
轨道高度分析图
轨道倾角分析图
轨道综合分析图
查看轨道综合分析图
交会数据列表
事件ID 空间交会对象 最接近时刻(TCA) 交会距离 交会风险概率(CRP) 交会风险指数(CRI) 操作
CDM_260907-090406-323306-768221
2026-09-07T
09:04:15+0000
1.099 km
极远距离
1.972235E-5 中风险 0.61
CDM_260901-121905-692706-768221
2026-09-01T
12:19:31+0000
2.178 km
极远距离
2.165875E-6 低风险 0.42